Regional Weather Roundup
Issued by NWS Portland, ME

Current Version | Previous Version | Text Only | Print | Product List | Glossary Off
Versions: 1 2 3 4 5 6 7 8 9 10 11 12 13 14 15 16 17 18 19 20 21 22 23 24 25 26 27 28 29 30 31 32 33 34 35 36 37 38 39 40 41 42 43 44 45 46 47 48 49 50
000 ASUS41 KGYX 210305 RWRGYX WEATHER ROUNDUP FOR MAINE AND NEW HAMPSHIRE NATIONAL WEATHER SERVICE GRAY ME 1100 PM EDT FRI JUL 20 2018 MEZ002-005-006-010-012-015-018-020-021-024-026-027-029-210400- MAINE CITY SKY/WX TMP DP RH WIND PRES REMARKS PORTLAND FAIR 64 61 90 CALM 30.18F SANFORD FAIR 52 51 97 CALM 30.19S BAR HARBOR FAIR 62 60 93 CALM 30.20S WISCASSET MOCLDY 60 59 96 CALM 30.20S ROCKLAND FAIR 59 58 96 CALM 30.19S FOG FRYEBURG FAIR 60 57 89 CALM 30.19S LEWISTONAUBURN FAIR 59 57 93 CALM 30.19F AUGUSTA FAIR 63 57 81 S3 30.19S WATERVILLE FAIR 63 56 78 CALM 30.17R BANGOR FAIR 65 60 84 S3 30.19R GREENVILLE N/A 66 57 72 CALM 30.18S MILLINOCKET FAIR 68 57 68 CALM 30.18R HOULTON FAIR 69 57 65 S5 30.16R PRESQUE ISLE FAIR 65 61 87 S3 30.16S FRENCHVILLE FAIR 74 58 57 SE5 30.16R CARIBOU FAIR 72 60 66 S3 30.15S $$ NHZ002-005-008-009-011-012-014-210400- NEW HAMPSHIRE CITY SKY/WX TMP DP RH WIND PRES REMARKS PORTSMOUTH CLEAR 63 59 88 E6 30.16S ROCHESTER FAIR 62 57 83 CALM 30.17F NASHUA FAIR 68 60 75 SE3 30.16F MANCHESTER FAIR 68 57 68 E5 30.15S CONCORD FAIR 65 57 75 SE5 30.17S PLYMOUTH FAIR 62 58 88 CALM 30.17S BERLIN FAIR 61 57 87 CALM 30.18S WHITEFIELD FAIR 65 57 75 CALM 30.16S JAFFREY FAIR 63 59 87 CALM 30.18S KEENE FAIR 67 57 70 CALM 30.15S LEBANON FAIR 66 57 72 S3 30.14S MT WASHINGTON PTCLDY 54 43 66 SE9 N/A $$ VTZ005-007-008-210400- VERMONT CITY SKY/WX TMP DP RH WIND PRES REMARKS ST JOHNSBURY N/A 66 59 78 MISG 30.13R MONTPELIER FAIR 70 57 63 S13 30.18S BURLINGTON FAIR 74 55 51 SE6 30.08R $$ MAZ007-012-024-CTZ003-RIZ002-NYZ038-NYZ072-210400- SOUTHERN NEW ENGLAND AND NY CITY SKY/WX TMP DP RH WIND PRES REMARKS BOSTON FAIR 70 60 70 S8 30.16S NANTUCKET FAIR 58 32 37 CALM 30.17S PROVIDENCE FAIR 67 60 78 S3 30.17S HARTFORD FAIR 69 56 62 SE8 30.14R ALBANY FAIR 76 58 53 S9 30.10S NEW YORK CITY MOCLDY 74 56 53 S10 30.12S $$ ANZ081-ANZ082-ANZ150-NHZ014-MEZ023>029-210400- COASTAL MARINE OBSERVATIONS STATION/POSITION TIME TEMP WIND PRES WAVE AIR SEA DIR/SP/G HT/PER (UTC) (F) (DEG/KT/KT) (MB) (FT/S) MOUNT DESERT ROC 0300 63 170/ 5/ 6 1022.8S MATINICUS ROCK 0200 63 170/ 8/ 8 1022.1R ISLE OF SHOALS 0200 67 140/ 13/ 14 1021.2S JEFFREYS LEDGE 0236 67 N/A 2/ 7 CASHES LEDGE BUO 0250 66 69 1022.4R 2/ 8 $$ .............KEY.............. WCI - WIND CHILL TC - TEMPERATURE IN CELSIUS VSB - VISIBILITY IN MILES HX - HEAT INDEX FAIR- INDICATES FEW OR NO CLOUDS BELOW 12,000 FT, WITH NO SIGNIFICANT WEATHER AND/OR OBSTRUCTIONS TO VISIBILITY.

USA.gov is the U.S. government's official web portal to all federal, state and local government web resources and services.